Walbridge, OH

2:31 PM EST on February 09, 2016 (GMT -0500)
Metcalf

Weather History for KTDZ - October, 2012

Change the Weather History Date:

Friday, October 26, 2012

  Actual Average (KTOL) Record (KTOL)
Temperature  
Mean Temperature 58 °F 49 °F  
Max Temperature 69 °F 59 °F 81 °F (1963)
Min Temperature 46 °F 39 °F 21 °F (1887)
Degree Days  
Heating Degree Days 8 16  
Month to date heating degree days 318  
Since 1 July heating degree days 442  
Cooling Degree Days 0 0  
Month to date cooling degree days 8  
Year to date cooling degree days 792  
Growing Degree Days 8 (Base 50)    
Moisture  
Dew Point 44 °F    
Average Humidity 79    
Maximum Humidity 87    
Minimum Humidity 57    
Precipitation  
Precipitation 0.24 in 0.08 in 0.46 in (1997)
Month to date precipitation 2.19  
Year to date precipitation 28.29  
Snow  
Snow 0.00 in 0.00 in - ()
Month to date snowfall 0.1  
Since 1 July snowfall 0.1  
Since 1 September snowfall 0.1  
Snow Depth -    
Sea Level Pressure  
Sea Level Pressure 30.14 in    
Wind  
Wind Speed 13 mph (NW)    
Max Wind Speed 25 mph    
Max Gust Speed 32 mph    
Visibility 10 miles    
Events Rain    
T = Trace of Precipitation, MM = Missing Value Source: NWS Daily Summary

Daily Weather History Graph

Daily Weather History Graph

Search for Another Location

Airport or City:

Trip Planner

Search our weather history database for the weather conditions in past years. The results will help you decide how hot, cold, wet, or windy it might be!

Date:

Astronomy

Oct. 26, 2012 Rise Set
Actual Time 7:59 AM EDT 6:35 PM EDT
Civil Twilight 7:30 AM EDT 7:04 PM EDT
Nautical Twilight 6:58 AM EDT 7:36 PM EDT
Astronomical Twilight 6:25 AM EDT 8:08 PM EDT
Moon 4:52 PM EDT (10/26) 4:52 AM EDT (10/26)
Length of Visible Light 11h 33m
Length of Day
10h 36m
Waxing Gibbous, 91% of the Moon is Illuminated
Oct 26
Waxing Gibbous
Oct 29
Full
Nov 6
Last Quarter
Nov 13
New
Nov 20
First Quarter

Hourly Weather History & Observations

Time (EDT) Temp. Windchill Dew Point Humidity Pressure Visibility Wind Dir Wind Speed Gust Speed Precip Events Conditions
2:53 AM 69.1 °F - 53.1 °F 57% 29.90 in 10.0 mi SSW 16.1 mph 21.9 mph N/A   Overcast
3:53 AM 64.9 °F - 54.0 °F 68% 29.93 in 10.0 mi SW 8.1 mph - N/A   Clear
4:26 AM 59.0 °F - 53.6 °F 82% 29.97 in 10.0 mi WNW 25.3 mph 32.2 mph N/A   Clear
4:43 AM 57.2 °F - 50.0 °F 77% 29.98 in 10.0 mi WNW 19.6 mph 31.1 mph N/A   Mostly Cloudy
4:53 AM 57.0 °F - 48.9 °F 74% 29.98 in 10.0 mi WNW 18.4 mph - N/A   Overcast
5:53 AM 55.0 °F - 45.0 °F 69% 30.02 in 10.0 mi NW 19.6 mph 23.0 mph N/A   Overcast
6:00 AM 53.6 °F - 44.6 °F 72% 30.04 in 10.0 mi NW 16.1 mph - N/A   Overcast
6:49 AM 51.8 °F - 44.6 °F 76% 30.07 in 10.0 mi WNW 16.1 mph - N/A   Overcast
6:53 AM 52.0 °F - 45.0 °F 77% 30.06 in 10.0 mi NW 13.8 mph - N/A   Overcast
7:26 AM 51.8 °F - 42.8 °F 71% 30.07 in 10.0 mi NW 16.1 mph - N/A   Overcast
7:53 AM 50.0 °F - 43.0 °F 77% 30.10 in 10.0 mi NW 15.0 mph - N/A   Overcast
8:53 AM 46.9 °F - 43.0 °F 86% 30.17 in 4.0 mi NW 16.1 mph - 0.06 in Rain Heavy Rain
9:17 AM 46.4 °F 41.1 °F 42.8 °F 87% 30.17 in 5.0 mi NW 11.5 mph - 0.02 in Rain Light Rain
9:53 AM 46.9 °F - 43.0 °F 86% 30.17 in 10.0 mi NNW 9.2 mph - 0.03 in   Overcast
10:01 AM 46.4 °F 41.5 °F 42.8 °F 87% 30.17 in 10.0 mi North 10.4 mph - N/A   Overcast
11:07 AM 48.2 °F - 42.8 °F 82% 30.20 in 10.0 mi North 9.2 mph - 0.00 in Rain Light Rain
11:53 AM 48.0 °F - 43.0 °F 83% 30.21 in 10.0 mi NNW 8.1 mph - 0.01 in   Overcast
12:53 PM 48.9 °F - 43.0 °F 80% 30.20 in 10.0 mi NNW 9.2 mph - N/A   Overcast
1:53 PM 50.0 °F - 42.1 °F 74% 30.21 in 10.0 mi NNW 10.4 mph - N/A   Overcast
2:53 PM 48.9 °F - 41.0 °F 74% 30.20 in 10.0 mi NNW 12.7 mph - N/A   Overcast
3:41 PM 48.2 °F - 39.2 °F 71% 30.20 in 10.0 mi NNW 10.4 mph - N/A   Overcast
3:53 PM 48.9 °F - 39.0 °F 69% 30.21 in 10.0 mi NNW 11.5 mph - N/A   Overcast
4:53 PM 46.0 °F 41.0 °F 39.9 °F 79% 30.20 in 6.0 mi NNW 10.4 mph - 0.03 in Rain Rain
5:53 PM 46.0 °F 43.1 °F 41.0 °F 83% 30.19 in 10.0 mi North 5.8 mph - 0.05 in Rain Light Rain
6:53 PM 46.0 °F 44.8 °F 41.0 °F 83% 30.22 in 10.0 mi NNW 3.5 mph - 0.02 in Rain Light Rain
7:53 PM 46.9 °F - 42.1 °F 83% 30.24 in 10.0 mi Calm Calm - 0.01 in   Overcast
8:43 PM 46.4 °F 44.3 °F 42.8 °F 87% 30.21 in 8.0 mi NE 4.6 mph - 0.01 in Rain Light Rain
8:53 PM 46.0 °F - 42.1 °F 86% 30.22 in 10.0 mi Calm Calm - 0.02 in Rain Light Rain
9:53 PM 46.9 °F - 42.1 °F 83% 30.21 in 10.0 mi NE 4.6 mph - 0.01 in   Overcast
10:53 PM 46.9 °F - 43.0 °F 86% 30.20 in 10.0 mi Calm Calm - N/A   Overcast
11:25 PM 46.4 °F - 42.8 °F 87% 30.19 in 10.0 mi Calm Calm - N/A   Overcast
11:53 PM 46.9 °F - 39.9 °F 77% 30.21 in 10.0 mi North 5.8 mph - N/A   Overcast